Multibeam Report for MGLN45MV


Ship Name: Melville
Chief Scientist: Stabeno, Phyllis
NOAA / PMEL
Source Organization: UNOLS R2R
Start Date: 2008-08-24
End Date: 2008-09-11


View ISO Metadata

Visit the full NCEI Bathymetry Viewer


Multibeam Bathymetry

Cruise Details

Project: Eco-FOCI Alaska Fisheries Science Center and the P
Instrument: Simrad EM120

Data Quality

Number of Files: 425
Number of Records: 636396
BATHYMETRY DATA Quantity Percentage
Number of Beams 121551636 100%
Number of Good Beams 117386413 96.57%
Number of Zero Beams 4165223 3.43%
Number of Flagged Beams 0 0%

Navigation Totals

Total Time: 203.9175 hours
Total Track Length: 2940.4003 km
Average Speed: 14.42 km/hr (7.7862 knots)

Cruise Bounds

Northern Extent: 62.310932
Southern Extent: 53.369377
Western Extent: -179.10239
Eastern Extent: -163.70753

Limits

Minimum Sonar Depth 2.14 Maximum Sonar Depth 7.91
Minimum Altitude 0 Maximum Altitude 9671.04
Minimum Depth 18.76 Maximum Depth 10361.7998

File Information

Full Resolution Bathymetry as collected (raw): 421

Files File Size Description
0000_20080824_182133_melville.all.mb56.gz 20.13MB Simrad multibeam vendor format
0001_20080824_191707_melville.all.mb56.gz 1.4KB Simrad multibeam vendor format
0002_20080824_191707_melville.all.mb56.gz 1.5KB Simrad multibeam vendor format
0003_20080824_191707_melville.all.mb56.gz 20.81MB Simrad multibeam vendor format
0004_20080824_201707_melville.all.mb56.gz 23.56MB Simrad multibeam vendor format
0005_20080824_211707_melville.all.mb56.gz 23.67MB Simrad multibeam vendor format
0006_20080824_221708_melville.all.mb56.gz 23.24MB Simrad multibeam vendor format
0007_20080824_231708_melville.all.mb56.gz 23.17MB Simrad multibeam vendor format
0008_20080825_001709_melville.all.mb56.gz 23.17MB Simrad multibeam vendor format
0009_20080825_011709_melville.all.mb56.gz 34.80MB Simrad multibeam vendor format
0010_20080825_021709_melville.all.mb56.gz 35.41MB Simrad multibeam vendor format
0011_20080825_031414_melville.all.mb56.gz 17.71MB Simrad multibeam vendor format
0012_20080825_041414_melville.all.mb56.gz 5.45MB Simrad multibeam vendor format
0013_20080825_051414_melville.all.mb56.gz 5.58MB Simrad multibeam vendor format
0014_20080825_061414_melville.all.mb56.gz 7.67MB Simrad multibeam vendor format
0015_20080825_071415_melville.all.mb56.gz 7.14MB Simrad multibeam vendor format
0016_20080825_081415_melville.all.mb56.gz 4.99MB Simrad multibeam vendor format
0017_20080825_091415_melville.all.mb56.gz 4.57MB Simrad multibeam vendor format
0018_20080825_101416_melville.all.mb56.gz 4.18MB Simrad multibeam vendor format
0019_20080825_111416_melville.all.mb56.gz 4.23MB Simrad multibeam vendor format
0020_20080825_121416_melville.all.mb56.gz 4.34MB Simrad multibeam vendor format
0021_20080825_131416_melville.all.mb56.gz 4.01MB Simrad multibeam vendor format
0022_20080825_141417_melville.all.mb56.gz 3.87MB Simrad multibeam vendor format
0023_20080825_151417_melville.all.mb56.gz 3.72MB Simrad multibeam vendor format
0024_20080825_161417_melville.all.mb56.gz 3.49MB Simrad multibeam vendor format
0025_20080825_171417_melville.all.mb56.gz 3.55MB Simrad multibeam vendor format
0026_20080825_181418_melville.all.mb56.gz 3.62MB Simrad multibeam vendor format
0027_20080825_191418_melville.all.mb56.gz 3.66MB Simrad multibeam vendor format
0028_20080825_201419_melville.all.mb56.gz 3.52MB Simrad multibeam vendor format
0029_20080825_211420_melville.all.mb56.gz 3.49MB Simrad multibeam vendor format
0030_20080825_221420_melville.all.mb56.gz 3.92MB Simrad multibeam vendor format
0031_20080825_231421_melville.all.mb56.gz 18.73MB Simrad multibeam vendor format
0032_20080826_001421_melville.all.mb56.gz 15.13MB Simrad multibeam vendor format
0033_20080826_010005_melville.all.mb56.gz 20.96MB Simrad multibeam vendor format
0034_20080826_020005_melville.all.mb56.gz 21.01MB Simrad multibeam vendor format
0035_20080826_030005_melville.all.mb56.gz 21.55MB Simrad multibeam vendor format
0036_20080826_040005_melville.all.mb56.gz 22.66MB Simrad multibeam vendor format
0037_20080826_050005_melville.all.mb56.gz 23.53MB Simrad multibeam vendor format
0038_20080826_060005_melville.all.mb56.gz 17.95MB Simrad multibeam vendor format
0039_20080826_064225_melville.all.mb56.gz 28.68MB Simrad multibeam vendor format
0040_20080826_074226_melville.all.mb56.gz 30.18MB Simrad multibeam vendor format
0041_20080826_084227_melville.all.mb56.gz 33.00MB Simrad multibeam vendor format
0042_20080826_094227_melville.all.mb56.gz 31.21MB Simrad multibeam vendor format
0043_20080826_104227_melville.all.mb56.gz 30.74MB Simrad multibeam vendor format
0044_20080826_114228_melville.all.mb56.gz 18.97MB Simrad multibeam vendor format
0045_20080826_122026_melville.all.mb56.gz 29.99MB Simrad multibeam vendor format
0046_20080826_132026_melville.all.mb56.gz 22.14MB Simrad multibeam vendor format
0047_20080826_143846_melville.all.mb56.gz 31.24MB Simrad multibeam vendor format
0048_20080826_153847_melville.all.mb56.gz 31.20MB Simrad multibeam vendor format
0049_20080826_163847_melville.all.mb56.gz 31.94MB Simrad multibeam vendor format
0050_20080826_173848_melville.all.mb56.gz 30.16MB Simrad multibeam vendor format
0051_20080826_183849_melville.all.mb56.gz 11.59MB Simrad multibeam vendor format
0052_20080826_190116_melville.all.mb56.gz 441.6KB Simrad multibeam vendor format
0053_20080826_190414_melville.all.mb56.gz 32.28MB Simrad multibeam vendor format
0054_20080826_200415_melville.all.mb56.gz 32.44MB Simrad multibeam vendor format
0055_20080826_210415_melville.all.mb56.gz 32.13MB Simrad multibeam vendor format
0056_20080826_220415_melville.all.mb56.gz 31.99MB Simrad multibeam vendor format
0057_20080826_230416_melville.all.mb56.gz 32.59MB Simrad multibeam vendor format
0058_20080827_000417_melville.all.mb56.gz 3.17MB Simrad multibeam vendor format
0059_20080827_021449_melville.all.mb56.gz 3.91MB Simrad multibeam vendor format
0060_20080827_022426_melville.all.mb56.gz 36.73MB Simrad multibeam vendor format
0061_20080827_032427_melville.all.mb56.gz 6.06MB Simrad multibeam vendor format
0062_20080827_044527_melville.all.mb56.gz 5.38MB Simrad multibeam vendor format
0063_20080827_045655_melville.all.mb56.gz 37.51MB Simrad multibeam vendor format
0064_20080827_055656_melville.all.mb56.gz 37.57MB Simrad multibeam vendor format
0065_20080827_065656_melville.all.mb56.gz 37.29MB Simrad multibeam vendor format
0066_20080827_075656_melville.all.mb56.gz 38.21MB Simrad multibeam vendor format
0067_20080827_085657_melville.all.mb56.gz 39.46MB Simrad multibeam vendor format
0068_20080827_095657_melville.all.mb56.gz 39.20MB Simrad multibeam vendor format
0069_20080827_105658_melville.all.mb56.gz 31.52MB Simrad multibeam vendor format
0070_20080827_115048_melville.all.mb56.gz 42.05MB Simrad multibeam vendor format
0071_20080827_125049_melville.all.mb56.gz 38.09MB Simrad multibeam vendor format
0072_20080827_135050_melville.all.mb56.gz 37.19MB Simrad multibeam vendor format
0073_20080827_145050_melville.all.mb56.gz 36.50MB Simrad multibeam vendor format
0074_20080827_155050_melville.all.mb56.gz 35.49MB Simrad multibeam vendor format
0075_20080827_165051_melville.all.mb56.gz 34.87MB Simrad multibeam vendor format
0076_20080827_175051_melville.all.mb56.gz 16.43MB Simrad multibeam vendor format
0077_20080827_183607_melville.all.mb56.gz 32.46MB Simrad multibeam vendor format
0078_20080827_193607_melville.all.mb56.gz 30.54MB Simrad multibeam vendor format
0079_20080827_203608_melville.all.mb56.gz 32.47MB Simrad multibeam vendor format
0080_20080827_213608_melville.all.mb56.gz 31.77MB Simrad multibeam vendor format
0081_20080827_223608_melville.all.mb56.gz 30.62MB Simrad multibeam vendor format
0082_20080827_233609_melville.all.mb56.gz 30.60MB Simrad multibeam vendor format
0083_20080828_003610_melville.all.mb56.gz 30.21MB Simrad multibeam vendor format
0084_20080828_013610_melville.all.mb56.gz 30.07MB Simrad multibeam vendor format
0085_20080828_023611_melville.all.mb56.gz 29.40MB Simrad multibeam vendor format
0086_20080828_033611_melville.all.mb56.gz 29.68MB Simrad multibeam vendor format
0087_20080828_043612_melville.all.mb56.gz 28.88MB Simrad multibeam vendor format
0088_20080828_053612_melville.all.mb56.gz 28.33MB Simrad multibeam vendor format
0089_20080828_063612_melville.all.mb56.gz 26.57MB Simrad multibeam vendor format
0090_20080828_073613_melville.all.mb56.gz 25.97MB Simrad multibeam vendor format
0091_20080828_083613_melville.all.mb56.gz 24.71MB Simrad multibeam vendor format
0092_20080828_093614_melville.all.mb56.gz 24.71MB Simrad multibeam vendor format
0093_20080828_103615_melville.all.mb56.gz 24.43MB Simrad multibeam vendor format
0094_20080828_113615_melville.all.mb56.gz 23.42MB Simrad multibeam vendor format
0095_20080828_123616_melville.all.mb56.gz 23.18MB Simrad multibeam vendor format
0096_20080828_133617_melville.all.mb56.gz 22.84MB Simrad multibeam vendor format
0097_20080828_143618_melville.all.mb56.gz 22.74MB Simrad multibeam vendor format
0098_20080828_153619_melville.all.mb56.gz 23.08MB Simrad multibeam vendor format
0099_20080828_163619_melville.all.mb56.gz 22.27MB Simrad multibeam vendor format
0100_20080828_173619_melville.all.mb56.gz 22.33MB Simrad multibeam vendor format
0101_20080828_183619_melville.all.mb56.gz 22.09MB Simrad multibeam vendor format
0102_20080828_193620_melville.all.mb56.gz 21.30MB Simrad multibeam vendor format
0103_20080828_203620_melville.all.mb56.gz 21.91MB Simrad multibeam vendor format
0104_20080828_213621_melville.all.mb56.gz 21.68MB Simrad multibeam vendor format
0105_20080828_223622_melville.all.mb56.gz 21.94MB Simrad multibeam vendor format
0106_20080828_233622_melville.all.mb56.gz 21.52MB Simrad multibeam vendor format
0107_20080829_003623_melville.all.mb56.gz 21.40MB Simrad multibeam vendor format
0108_20080829_013624_melville.all.mb56.gz 21.32MB Simrad multibeam vendor format
0109_20080829_023624_melville.all.mb56.gz 20.79MB Simrad multibeam vendor format
0110_20080829_033625_melville.all.mb56.gz 20.87MB Simrad multibeam vendor format
0111_20080829_043626_melville.all.mb56.gz 9.60MB Simrad multibeam vendor format
0112_20080829_050701_melville.all.mb56.gz 7.56MB Simrad multibeam vendor format
0113_20080829_060701_melville.all.mb56.gz 5.19MB Simrad multibeam vendor format
0114_20080829_070701_melville.all.mb56.gz 5.16MB Simrad multibeam vendor format
0115_20080829_080701_melville.all.mb56.gz 7.07MB Simrad multibeam vendor format
0116_20080829_090701_melville.all.mb56.gz 8.84MB Simrad multibeam vendor format
0117_20080829_100701_melville.all.mb56.gz 20.02MB Simrad multibeam vendor format
0118_20080829_110702_melville.all.mb56.gz 17.68MB Simrad multibeam vendor format
0119_20080829_120702_melville.all.mb56.gz 17.77MB Simrad multibeam vendor format
0120_20080829_130703_melville.all.mb56.gz 19.34MB Simrad multibeam vendor format
0121_20080829_140703_melville.all.mb56.gz 19.27MB Simrad multibeam vendor format
0122_20080829_150703_melville.all.mb56.gz 0.66MB Simrad multibeam vendor format
0123_20080829_151047_melville.all.mb56.gz 20.72MB Simrad multibeam vendor format
0124_20080829_161047_melville.all.mb56.gz 18.83MB Simrad multibeam vendor format
0127_20080829_221323_melville.all.mb56.gz 26.11MB Simrad multibeam vendor format
0128_20080829_231323_melville.all.mb56.gz 26.69MB Simrad multibeam vendor format
0129_20080830_001324_melville.all.mb56.gz 27.45MB Simrad multibeam vendor format
0130_20080830_011324_melville.all.mb56.gz 5.54MB Simrad multibeam vendor format
0131_20080830_030040_melville.all.mb56.gz 28.23MB Simrad multibeam vendor format
0132_20080830_040040_melville.all.mb56.gz 29.07MB Simrad multibeam vendor format
0133_20080830_050040_melville.all.mb56.gz 29.34MB Simrad multibeam vendor format
0134_20080830_060040_melville.all.mb56.gz 30.09MB Simrad multibeam vendor format
0135_20080830_070042_melville.all.mb56.gz 30.70MB Simrad multibeam vendor format
0136_20080830_080043_melville.all.mb56.gz 20.83MB Simrad multibeam vendor format
0137_20080830_090043_melville.all.mb56.gz 22.20MB Simrad multibeam vendor format
0138_20080830_100044_melville.all.mb56.gz 32.42MB Simrad multibeam vendor format
0139_20080830_110045_melville.all.mb56.gz 29.95MB Simrad multibeam vendor format
0140_20080830_120045_melville.all.mb56.gz 29.79MB Simrad multibeam vendor format
0141_20080830_130045_melville.all.mb56.gz 30.64MB Simrad multibeam vendor format
0142_20080830_140045_melville.all.mb56.gz 31.91MB Simrad multibeam vendor format
0143_20080830_150045_melville.all.mb56.gz 3.51MB Simrad multibeam vendor format
0144_20080830_151510_melville.all.mb56.gz 33.60MB Simrad multibeam vendor format
0145_20080830_161510_melville.all.mb56.gz 34.74MB Simrad multibeam vendor format
0146_20080830_171510_melville.all.mb56.gz 34.24MB Simrad multibeam vendor format
0147_20080830_181510_melville.all.mb56.gz 34.67MB Simrad multibeam vendor format
0148_20080830_191511_melville.all.mb56.gz 33.84MB Simrad multibeam vendor format
0149_20080830_201511_melville.all.mb56.gz 33.64MB Simrad multibeam vendor format
0150_20080830_211512_melville.all.mb56.gz 34.55MB Simrad multibeam vendor format
0151_20080830_221513_melville.all.mb56.gz 35.24MB Simrad multibeam vendor format
0152_20080830_231513_melville.all.mb56.gz 34.60MB Simrad multibeam vendor format
0153_20080831_001514_melville.all.mb56.gz 35.49MB Simrad multibeam vendor format
0154_20080831_011514_melville.all.mb56.gz 36.44MB Simrad multibeam vendor format
0155_20080831_021515_melville.all.mb56.gz 17.02MB Simrad multibeam vendor format
0156_20080831_024327_melville.all.mb56.gz 38.85MB Simrad multibeam vendor format
0157_20080831_034327_melville.all.mb56.gz 37.84MB Simrad multibeam vendor format
0158_20080831_044327_melville.all.mb56.gz 38.75MB Simrad multibeam vendor format
0159_20080831_054327_melville.all.mb56.gz 37.74MB Simrad multibeam vendor format
0160_20080831_064328_melville.all.mb56.gz 37.69MB Simrad multibeam vendor format
0161_20080831_074328_melville.all.mb56.gz 35.85MB Simrad multibeam vendor format
0162_20080831_084328_melville.all.mb56.gz 34.50MB Simrad multibeam vendor format
0163_20080831_094329_melville.all.mb56.gz 34.89MB Simrad multibeam vendor format
0164_20080831_104330_melville.all.mb56.gz 34.03MB Simrad multibeam vendor format
0165_20080831_114330_melville.all.mb56.gz 33.83MB Simrad multibeam vendor format
0166_20080831_124331_melville.all.mb56.gz 34.84MB Simrad multibeam vendor format
0167_20080831_134331_melville.all.mb56.gz 33.50MB Simrad multibeam vendor format
0168_20080831_144332_melville.all.mb56.gz 31.10MB Simrad multibeam vendor format
0169_20080831_154333_melville.all.mb56.gz 28.96MB Simrad multibeam vendor format
0170_20080831_164333_melville.all.mb56.gz 29.66MB Simrad multibeam vendor format
0171_20080831_174333_melville.all.mb56.gz 32.00MB Simrad multibeam vendor format
0172_20080831_184334_melville.all.mb56.gz 30.65MB Simrad multibeam vendor format
0173_20080831_194334_melville.all.mb56.gz 29.14MB Simrad multibeam vendor format
0174_20080831_204334_melville.all.mb56.gz 28.84MB Simrad multibeam vendor format
0175_20080831_234052_melville.all.mb56.gz 29.65MB Simrad multibeam vendor format
0176_20080901_004053_melville.all.mb56.gz 29.85MB Simrad multibeam vendor format
0177_20080901_014055_melville.all.mb56.gz 4.40MB Simrad multibeam vendor format
0178_20080901_032147_melville.all.mb56.gz 6.09MB Simrad multibeam vendor format
0179_20080901_033611_melville.all.mb56.gz 29.78MB Simrad multibeam vendor format
0180_20080901_043611_melville.all.mb56.gz 29.53MB Simrad multibeam vendor format
0181_20080901_053611_melville.all.mb56.gz 30.69MB Simrad multibeam vendor format
0182_20080901_063613_melville.all.mb56.gz 30.95MB Simrad multibeam vendor format
0183_20080901_073613_melville.all.mb56.gz 30.08MB Simrad multibeam vendor format
0184_20080901_083613_melville.all.mb56.gz 29.00MB Simrad multibeam vendor format
0185_20080901_093615_melville.all.mb56.gz 29.31MB Simrad multibeam vendor format
0186_20080901_103615_melville.all.mb56.gz 30.00MB Simrad multibeam vendor format
0187_20080901_113616_melville.all.mb56.gz 30.01MB Simrad multibeam vendor format
0188_20080901_123617_melville.all.mb56.gz 29.51MB Simrad multibeam vendor format
0189_20080901_133617_melville.all.mb56.gz 29.54MB Simrad multibeam vendor format
0190_20080901_143618_melville.all.mb56.gz 19.23MB Simrad multibeam vendor format
0191_20080901_151723_melville.all.mb56.gz 29.41MB Simrad multibeam vendor format
0192_20080901_161722_melville.all.mb56.gz 29.56MB Simrad multibeam vendor format
0193_20080901_171723_melville.all.mb56.gz 30.01MB Simrad multibeam vendor format
0194_20080901_181723_melville.all.mb56.gz 29.77MB Simrad multibeam vendor format
0195_20080901_191724_melville.all.mb56.gz 30.09MB Simrad multibeam vendor format
0196_20080901_201724_melville.all.mb56.gz 30.13MB Simrad multibeam vendor format
0197_20080901_211724_melville.all.mb56.gz 29.39MB Simrad multibeam vendor format
0198_20080901_221724_melville.all.mb56.gz 28.97MB Simrad multibeam vendor format
0199_20080901_231724_melville.all.mb56.gz 29.25MB Simrad multibeam vendor format
0200_20080902_001725_melville.all.mb56.gz 29.09MB Simrad multibeam vendor format
0201_20080902_011725_melville.all.mb56.gz 28.57MB Simrad multibeam vendor format
0202_20080902_021726_melville.all.mb56.gz 28.30MB Simrad multibeam vendor format
0203_20080902_031726_melville.all.mb56.gz 27.76MB Simrad multibeam vendor format
0204_20080902_041727_melville.all.mb56.gz 28.72MB Simrad multibeam vendor format
0205_20080902_051727_melville.all.mb56.gz 29.09MB Simrad multibeam vendor format
0206_20080902_061727_melville.all.mb56.gz 29.66MB Simrad multibeam vendor format
0207_20080902_071729_melville.all.mb56.gz 30.10MB Simrad multibeam vendor format
0208_20080902_081729_melville.all.mb56.gz 29.78MB Simrad multibeam vendor format
0209_20080902_091730_melville.all.mb56.gz 29.19MB Simrad multibeam vendor format
0210_20080902_101731_melville.all.mb56.gz 29.02MB Simrad multibeam vendor format
0211_20080902_111732_melville.all.mb56.gz 29.51MB Simrad multibeam vendor format
0212_20080902_121732_melville.all.mb56.gz 29.77MB Simrad multibeam vendor format
0213_20080902_131733_melville.all.mb56.gz 29.73MB Simrad multibeam vendor format
0214_20080902_141733_melville.all.mb56.gz 29.60MB Simrad multibeam vendor format
0215_20080902_151734_melville.all.mb56.gz 29.37MB Simrad multibeam vendor format
0216_20080902_161734_melville.all.mb56.gz 29.16MB Simrad multibeam vendor format
0217_20080902_171734_melville.all.mb56.gz 30.12MB Simrad multibeam vendor format
0218_20080902_181735_melville.all.mb56.gz 31.18MB Simrad multibeam vendor format
0219_20080902_191736_melville.all.mb56.gz 30.30MB Simrad multibeam vendor format
0220_20080902_201736_melville.all.mb56.gz 29.67MB Simrad multibeam vendor format
0221_20080902_211737_melville.all.mb56.gz 29.92MB Simrad multibeam vendor format
0222_20080902_221737_melville.all.mb56.gz 29.97MB Simrad multibeam vendor format
0223_20080902_231738_melville.all.mb56.gz 29.81MB Simrad multibeam vendor format
0224_20080903_001739_melville.all.mb56.gz 29.62MB Simrad multibeam vendor format
0225_20080903_011739_melville.all.mb56.gz 29.20MB Simrad multibeam vendor format
0226_20080903_021740_melville.all.mb56.gz 30.01MB Simrad multibeam vendor format
0227_20080903_031741_melville.all.mb56.gz 30.80MB Simrad multibeam vendor format
0228_20080903_041741_melville.all.mb56.gz 30.82MB Simrad multibeam vendor format
0229_20080903_051742_melville.all.mb56.gz 29.41MB Simrad multibeam vendor format
0230_20080903_061743_melville.all.mb56.gz 30.38MB Simrad multibeam vendor format
0231_20080903_071743_melville.all.mb56.gz 30.76MB Simrad multibeam vendor format
0232_20080903_081744_melville.all.mb56.gz 31.03MB Simrad multibeam vendor format
0233_20080903_091744_melville.all.mb56.gz 31.49MB Simrad multibeam vendor format
0234_20080903_101744_melville.all.mb56.gz 31.48MB Simrad multibeam vendor format
0235_20080903_111745_melville.all.mb56.gz 31.24MB Simrad multibeam vendor format
0236_20080903_121746_melville.all.mb56.gz 30.97MB Simrad multibeam vendor format
0237_20080903_131747_melville.all.mb56.gz 30.55MB Simrad multibeam vendor format
0238_20080903_141748_melville.all.mb56.gz 30.54MB Simrad multibeam vendor format
0239_20080903_151748_melville.all.mb56.gz 30.23MB Simrad multibeam vendor format
0240_20080903_161749_melville.all.mb56.gz 30.01MB Simrad multibeam vendor format
0241_20080903_171749_melville.all.mb56.gz 29.68MB Simrad multibeam vendor format
0242_20080903_181750_melville.all.mb56.gz 30.06MB Simrad multibeam vendor format
0243_20080903_191750_melville.all.mb56.gz 30.36MB Simrad multibeam vendor format
0244_20080903_201750_melville.all.mb56.gz 30.14MB Simrad multibeam vendor format
0245_20080903_211751_melville.all.mb56.gz 30.82MB Simrad multibeam vendor format
0246_20080903_221751_melville.all.mb56.gz 30.82MB Simrad multibeam vendor format
0247_20080903_231751_melville.all.mb56.gz 30.74MB Simrad multibeam vendor format
0248_20080904_001752_melville.all.mb56.gz 31.69MB Simrad multibeam vendor format
0249_20080904_011752_melville.all.mb56.gz 4.74MB Simrad multibeam vendor format
0250_20080904_013108_melville.all.mb56.gz 32.13MB Simrad multibeam vendor format
0251_20080904_023108_melville.all.mb56.gz 18.55MB Simrad multibeam vendor format
0252_20080904_085732_melville.all.mb56.gz 30.47MB Simrad multibeam vendor format
0253_20080904_095732_melville.all.mb56.gz 27.47MB Simrad multibeam vendor format
0254_20080904_112438_melville.all.mb56.gz 3.77MB Simrad multibeam vendor format
0255_20080904_114539_melville.all.mb56.gz 1.41MB Simrad multibeam vendor format
0256_20080904_195310_melville.all.mb56.gz 29.89MB Simrad multibeam vendor format
0257_20080904_205310_melville.all.mb56.gz 30.25MB Simrad multibeam vendor format
0258_20080904_215310_melville.all.mb56.gz 30.40MB Simrad multibeam vendor format
0259_20080904_225311_melville.all.mb56.gz 30.38MB Simrad multibeam vendor format
0260_20080904_235311_melville.all.mb56.gz 30.28MB Simrad multibeam vendor format
0261_20080905_005311_melville.all.mb56.gz 30.27MB Simrad multibeam vendor format
0262_20080905_015312_melville.all.mb56.gz 30.87MB Simrad multibeam vendor format
0263_20080905_025313_melville.all.mb56.gz 30.68MB Simrad multibeam vendor format
0264_20080905_035313_melville.all.mb56.gz 18.04MB Simrad multibeam vendor format
0265_20080905_042911_melville.all.mb56.gz 30.69MB Simrad multibeam vendor format
0266_20080905_052912_melville.all.mb56.gz 30.51MB Simrad multibeam vendor format
0267_20080905_062912_melville.all.mb56.gz 30.15MB Simrad multibeam vendor format
0268_20080905_072913_melville.all.mb56.gz 29.98MB Simrad multibeam vendor format
0269_20080905_082913_melville.all.mb56.gz 29.98MB Simrad multibeam vendor format
0270_20080905_092914_melville.all.mb56.gz 29.55MB Simrad multibeam vendor format
0271_20080905_102914_melville.all.mb56.gz 29.24MB Simrad multibeam vendor format
0272_20080905_112914_melville.all.mb56.gz 29.07MB Simrad multibeam vendor format
0273_20080905_122915_melville.all.mb56.gz 29.92MB Simrad multibeam vendor format
0274_20080905_132915_melville.all.mb56.gz 29.63MB Simrad multibeam vendor format
0275_20080905_142916_melville.all.mb56.gz 29.52MB Simrad multibeam vendor format
0276_20080905_152917_melville.all.mb56.gz 30.43MB Simrad multibeam vendor format
0277_20080905_162917_melville.all.mb56.gz 30.13MB Simrad multibeam vendor format
0278_20080905_172918_melville.all.mb56.gz 29.99MB Simrad multibeam vendor format
0279_20080905_182919_melville.all.mb56.gz 29.71MB Simrad multibeam vendor format
0280_20080905_192919_melville.all.mb56.gz 29.18MB Simrad multibeam vendor format
0281_20080905_202920_melville.all.mb56.gz 29.04MB Simrad multibeam vendor format
0282_20080905_212920_melville.all.mb56.gz 29.23MB Simrad multibeam vendor format
0283_20080905_222920_melville.all.mb56.gz 29.26MB Simrad multibeam vendor format
0284_20080905_232921_melville.all.mb56.gz 30.39MB Simrad multibeam vendor format
0285_20080906_002922_melville.all.mb56.gz 10.36MB Simrad multibeam vendor format
0286_20080906_005120_melville.all.mb56.gz 30.42MB Simrad multibeam vendor format
0287_20080906_015121_melville.all.mb56.gz 30.07MB Simrad multibeam vendor format
0288_20080906_025121_melville.all.mb56.gz 31.13MB Simrad multibeam vendor format
0289_20080906_035121_melville.all.mb56.gz 31.28MB Simrad multibeam vendor format
0290_20080906_045121_melville.all.mb56.gz 31.34MB Simrad multibeam vendor format
0291_20080906_055122_melville.all.mb56.gz 30.60MB Simrad multibeam vendor format
0292_20080906_065123_melville.all.mb56.gz 30.89MB Simrad multibeam vendor format
0293_20080906_075123_melville.all.mb56.gz 30.97MB Simrad multibeam vendor format
0294_20080906_085124_melville.all.mb56.gz 29.55MB Simrad multibeam vendor format
0295_20080906_095124_melville.all.mb56.gz 29.96MB Simrad multibeam vendor format
0296_20080906_105124_melville.all.mb56.gz 28.88MB Simrad multibeam vendor format
0297_20080906_115125_melville.all.mb56.gz 29.15MB Simrad multibeam vendor format
0298_20080906_125125_melville.all.mb56.gz 28.41MB Simrad multibeam vendor format
0299_20080906_135125_melville.all.mb56.gz 28.32MB Simrad multibeam vendor format
0300_20080906_145126_melville.all.mb56.gz 26.54MB Simrad multibeam vendor format
0301_20080906_155127_melville.all.mb56.gz 25.71MB Simrad multibeam vendor format
0302_20080906_165127_melville.all.mb56.gz 24.94MB Simrad multibeam vendor format
0303_20080906_175127_melville.all.mb56.gz 24.27MB Simrad multibeam vendor format
0304_20080906_185128_melville.all.mb56.gz 22.52MB Simrad multibeam vendor format
0305_20080906_195130_melville.all.mb56.gz 21.74MB Simrad multibeam vendor format
0306_20080906_205131_melville.all.mb56.gz 20.53MB Simrad multibeam vendor format
0307_20080906_215131_melville.all.mb56.gz 20.37MB Simrad multibeam vendor format
0308_20080906_225132_melville.all.mb56.gz 20.25MB Simrad multibeam vendor format
0309_20080906_235132_melville.all.mb56.gz 19.94MB Simrad multibeam vendor format
0310_20080907_005133_melville.all.mb56.gz 19.96MB Simrad multibeam vendor format
0311_20080907_015134_melville.all.mb56.gz 19.95MB Simrad multibeam vendor format
0312_20080907_025135_melville.all.mb56.gz 19.81MB Simrad multibeam vendor format
0313_20080907_035136_melville.all.mb56.gz 19.40MB Simrad multibeam vendor format
0314_20080907_045136_melville.all.mb56.gz 16.17MB Simrad multibeam vendor format
0315_20080907_055137_melville.all.mb56.gz 12.01MB Simrad multibeam vendor format
0316_20080907_065138_melville.all.mb56.gz 0.80MB Simrad multibeam vendor format
0317_20080907_070633_melville.all.mb56.gz 3.45MB Simrad multibeam vendor format
0318_20080907_080757_melville.all.mb56.gz 5.04MB Simrad multibeam vendor format
0319_20080907_090758_melville.all.mb56.gz 4.99MB Simrad multibeam vendor format
0320_20080907_100758_melville.all.mb56.gz 5.23MB Simrad multibeam vendor format
0321_20080907_110758_melville.all.mb56.gz 5.10MB Simrad multibeam vendor format
0322_20080907_120758_melville.all.mb56.gz 5.12MB Simrad multibeam vendor format
0323_20080907_130758_melville.all.mb56.gz 5.52MB Simrad multibeam vendor format
0324_20080907_140758_melville.all.mb56.gz 6.11MB Simrad multibeam vendor format
0325_20080907_150758_melville.all.mb56.gz 9.74MB Simrad multibeam vendor format
0326_20080907_160758_melville.all.mb56.gz 11.86MB Simrad multibeam vendor format
0327_20080907_170758_melville.all.mb56.gz 12.18MB Simrad multibeam vendor format
0328_20080907_180758_melville.all.mb56.gz 9.30MB Simrad multibeam vendor format
0329_20080907_191954_melville.all.mb56.gz 11.33MB Simrad multibeam vendor format
0330_20080907_201954_melville.all.mb56.gz 12.48MB Simrad multibeam vendor format
0331_20080907_211954_melville.all.mb56.gz 14.96MB Simrad multibeam vendor format
0332_20080907_221954_melville.all.mb56.gz 15.83MB Simrad multibeam vendor format
0333_20080907_231955_melville.all.mb56.gz 16.91MB Simrad multibeam vendor format
0334_20080908_001956_melville.all.mb56.gz 18.23MB Simrad multibeam vendor format
0335_20080908_011956_melville.all.mb56.gz 18.13MB Simrad multibeam vendor format
0336_20080908_021956_melville.all.mb56.gz 18.13MB Simrad multibeam vendor format
0337_20080908_031956_melville.all.mb56.gz 18.46MB Simrad multibeam vendor format
0338_20080908_041956_melville.all.mb56.gz 19.47MB Simrad multibeam vendor format
0339_20080908_051957_melville.all.mb56.gz 20.48MB Simrad multibeam vendor format
0340_20080908_061957_melville.all.mb56.gz 21.34MB Simrad multibeam vendor format
0341_20080908_071957_melville.all.mb56.gz 22.01MB Simrad multibeam vendor format
0342_20080908_081959_melville.all.mb56.gz 22.35MB Simrad multibeam vendor format
0343_20080908_092001_melville.all.mb56.gz 22.55MB Simrad multibeam vendor format
0344_20080908_102001_melville.all.mb56.gz 26.94MB Simrad multibeam vendor format
0345_20080908_112002_melville.all.mb56.gz 33.93MB Simrad multibeam vendor format
0346_20080908_122003_melville.all.mb56.gz 30.58MB Simrad multibeam vendor format
0347_20080908_132003_melville.all.mb56.gz 27.72MB Simrad multibeam vendor format
0348_20080908_142004_melville.all.mb56.gz 25.05MB Simrad multibeam vendor format
0349_20080908_152004_melville.all.mb56.gz 26.48MB Simrad multibeam vendor format
0350_20080908_162005_melville.all.mb56.gz 9.30MB Simrad multibeam vendor format
0351_19880908_164125_melville.all.mb56.gz 28.29MB Simrad multibeam vendor format
0352_19880908_174126_melville.all.mb56.gz 19.61MB Simrad multibeam vendor format
0353_20080908_183226_melville.all.mb56.gz 24.53MB Simrad multibeam vendor format
0354_20080908_193226_melville.all.mb56.gz 23.61MB Simrad multibeam vendor format
0355_20080908_203226_melville.all.mb56.gz 25.07MB Simrad multibeam vendor format
0356_20080908_213227_melville.all.mb56.gz 30.72MB Simrad multibeam vendor format
0357_20080908_223228_melville.all.mb56.gz 25.12MB Simrad multibeam vendor format
0358_20080908_233228_melville.all.mb56.gz 21.48MB Simrad multibeam vendor format
0359_20080909_003228_melville.all.mb56.gz 21.45MB Simrad multibeam vendor format
0360_20080909_013228_melville.all.mb56.gz 20.96MB Simrad multibeam vendor format
0361_20080909_023228_melville.all.mb56.gz 24.37MB Simrad multibeam vendor format
0362_20080909_033229_melville.all.mb56.gz 29.21MB Simrad multibeam vendor format
0363_20080909_043229_melville.all.mb56.gz 34.26MB Simrad multibeam vendor format
0364_20080909_053230_melville.all.mb56.gz 27.64MB Simrad multibeam vendor format
0365_20080909_063230_melville.all.mb56.gz 19.53MB Simrad multibeam vendor format
0366_20080909_073231_melville.all.mb56.gz 18.65MB Simrad multibeam vendor format
0367_20080909_083231_melville.all.mb56.gz 19.48MB Simrad multibeam vendor format
0368_20080909_093233_melville.all.mb56.gz 20.05MB Simrad multibeam vendor format
0369_20080909_103233_melville.all.mb56.gz 23.48MB Simrad multibeam vendor format
0370_20080909_113233_melville.all.mb56.gz 16.03MB Simrad multibeam vendor format
0371_20080909_123234_melville.all.mb56.gz 6.38MB Simrad multibeam vendor format
0372_20080909_131018_melville.all.mb56.gz 10.39MB Simrad multibeam vendor format
0373_20080909_141018_melville.all.mb56.gz 9.91MB Simrad multibeam vendor format
0374_20080909_151018_melville.all.mb56.gz 10.15MB Simrad multibeam vendor format
0375_20080909_161018_melville.all.mb56.gz 11.43MB Simrad multibeam vendor format
0376_20080909_171018_melville.all.mb56.gz 11.87MB Simrad multibeam vendor format
0377_20080909_181019_melville.all.mb56.gz 13.01MB Simrad multibeam vendor format
0378_20080909_191019_melville.all.mb56.gz 13.76MB Simrad multibeam vendor format
0379_20080909_201020_melville.all.mb56.gz 13.70MB Simrad multibeam vendor format
0380_20080909_211020_melville.all.mb56.gz 15.41MB Simrad multibeam vendor format
0381_20080909_221021_melville.all.mb56.gz 17.35MB Simrad multibeam vendor format
0382_20080909_231021_melville.all.mb56.gz 18.41MB Simrad multibeam vendor format
0383_20080910_001022_melville.all.mb56.gz 17.67MB Simrad multibeam vendor format
0384_20080910_011022_melville.all.mb56.gz 13.13MB Simrad multibeam vendor format
0385_20080910_021022_melville.all.mb56.gz 7.54MB Simrad multibeam vendor format
0386_20080910_031023_melville.all.mb56.gz 4.92MB Simrad multibeam vendor format
0387_20080910_042148_melville.all.mb56.gz 5.05MB Simrad multibeam vendor format
0388_20080910_052148_melville.all.mb56.gz 4.88MB Simrad multibeam vendor format
0389_20080910_062148_melville.all.mb56.gz 4.52MB Simrad multibeam vendor format
0390_20080910_072148_melville.all.mb56.gz 4.57MB Simrad multibeam vendor format
0391_20080910_082148_melville.all.mb56.gz 4.54MB Simrad multibeam vendor format
0392_20080910_092148_melville.all.mb56.gz 5.15MB Simrad multibeam vendor format
0393_20080910_102148_melville.all.mb56.gz 5.06MB Simrad multibeam vendor format
0394_20080910_112148_melville.all.mb56.gz 2.89MB Simrad multibeam vendor format
0395_20080910_115637_melville.all.mb56.gz 5.04MB Simrad multibeam vendor format
0396_20080910_125637_melville.all.mb56.gz 4.51MB Simrad multibeam vendor format
0397_20080910_135637_melville.all.mb56.gz 4.40MB Simrad multibeam vendor format
0398_20080910_145637_melville.all.mb56.gz 4.51MB Simrad multibeam vendor format
0399_20080910_155638_melville.all.mb56.gz 4.54MB Simrad multibeam vendor format
0400_20080910_165638_melville.all.mb56.gz 4.62MB Simrad multibeam vendor format
0401_20080910_175638_melville.all.mb56.gz 4.38MB Simrad multibeam vendor format
0402_20080910_185638_melville.all.mb56.gz 4.27MB Simrad multibeam vendor format
0403_20080910_195637_melville.all.mb56.gz 4.82MB Simrad multibeam vendor format
0404_20080910_205637_melville.all.mb56.gz 4.88MB Simrad multibeam vendor format
0405_20080910_215637_melville.all.mb56.gz 4.77MB Simrad multibeam vendor format
0406_20080910_225638_melville.all.mb56.gz 4.77MB Simrad multibeam vendor format
0407_20080910_235638_melville.all.mb56.gz 4.99MB Simrad multibeam vendor format
0408_20080911_005638_melville.all.mb56.gz 4.47MB Simrad multibeam vendor format
0409_20080911_015637_melville.all.mb56.gz 4.58MB Simrad multibeam vendor format
0410_20080911_025637_melville.all.mb56.gz 4.85MB Simrad multibeam vendor format
0411_20080911_035637_melville.all.mb56.gz 5.85MB Simrad multibeam vendor format
0412_20080911_045637_melville.all.mb56.gz 9.38MB Simrad multibeam vendor format
0413_20080911_055637_melville.all.mb56.gz 12.33MB Simrad multibeam vendor format
0414_20080911_065637_melville.all.mb56.gz 12.28MB Simrad multibeam vendor format
0415_20080911_075638_melville.all.mb56.gz 6.16MB Simrad multibeam vendor format
0416_20080911_085638_melville.all.mb56.gz 5.81MB Simrad multibeam vendor format
0417_20080911_095638_melville.all.mb56.gz 5.01MB Simrad multibeam vendor format
0418_20080911_105638_melville.all.mb56.gz 5.22MB Simrad multibeam vendor format
0419_20080911_115639_melville.all.mb56.gz 5.53MB Simrad multibeam vendor format
0420_20080911_125639_melville.all.mb56.gz 6.72MB Simrad multibeam vendor format
0421_20080911_135639_melville.all.mb56.gz 15.82MB Simrad multibeam vendor format
0422_20080911_145639_melville.all.mb56.gz 2.42MB Simrad multibeam vendor format

Metadata Files: 3

Files File Size Description
MGLN45MV_Multibeam.xml NCEI created ISO metadata
mb_bag_info.tar.gz 19.1KB Additional cruise information
xbt_bag_info.tar.gz 0.9KB Additional cruise information

Ancillary Files: 1

Files File Size Description
xbt.tar.gz 55.0KB Expendable Bathythermograph (XBT) data